Location: Ferintosh
(52.7647°N, 112.9692°W)
Time: 19:12:28
(UTC+00:00)

A-11 Canister half - Pass Details

Date: 22 May 2024
Orbit: 1515 x 1685 km, 47.2° (Epoch: 12 June)

Event Time Altitude Azimuth Distance (km) Brightness Sun altitude
Rises 15:10:11 0° 282° (WNW) 4,684 11.0 31.5°
Reaches altitude 10° 15:13:28 10° 276° (W) 3,689 10.6 32.0°
Maximum altitude 15:21:49 40° 211° (SSW) 2,101 9.9 33.2°
Drops below altitude 10° 15:30:10 10° 146° (SE) 3,685 11.7 34.5°
Sets 15:33:27 0° 139° (SE) 4,678 12.2 35.0°
